Location: Toronto
(43.6667°N, 79.4167°W)
Time: 12:10:45
(UTC-04:00)

X-37B - Pass Details

Date: 26 June 2021
Orbit: 383 x 392 km, 45.0° (Epoch: 01 July)

Event Time Altitude Azimuth Distance (km) Brightness Sun altitude
Rises 23:55:43 0° 275° (W) 2,255 4.8 -20.2°
Reaches altitude 10° 23:57:48 10° 278° (W) 1,402 3.7 -20.3°
Enters shadow 00:00:53 65° 354° (N) 425 0.9 -20.5°
